x

South Santa Rosa Is. Ca (46069) Wave Buoy

11:50 - Wed 28th Jan 2015 All times are PST. -8 hours from GMT.

  • Sig Wave height 5.9ft
  • Peak Period 12s
  • Average Period 11s
  • Wind
    4mph
  • Sea Temp 61°f
  • Ar Temp 60°f
  • Sea Pressure 1019.7mb
  • South Santa Rosa Is. Ca
  • South Santa Rosa Is. Ca

More Historic Weather Station data

Upgrade to MSW Pro to gain access to the past 30 days of data for over 8000 Wavebouys and Weather Stations around the globe.

Join Pro

Comparision Forecast

View Surf forecast
   
Qua 01/28 11:50 6ft 12s 11s 4
mph
1019.7mb 61f 60f
10:50 5.5ft 14s 11s 2 4 mph 1020.6mb 60f 60f
9:50 5ft 14s 10s 2 4 mph 1020.6mb 60f 60f
8:50 5.5ft 14s 11s 2 4 mph 1020.2mb 60f 60f
7:50 5.5ft 15s 10s 2
mph
1020.4mb 60f 60f
6:50 6.5ft 14s 11s 2 4 mph 1020.3mb 60f 59f
5:50 5ft 14s 10s 4
mph
1020.1mb 60f 60f
4:50 6ft 14s 10s 4 7 mph 1019.9mb 61f 59f
3:50 6ft 12s 11s 9 11 mph 1020mb 61f 59f
2:50 7ft 15s 11s 9 11 mph 1021mb 61f 60f
1:50 5.5ft 13s 11s 9 11 mph 1021.3mb 61f 60f
12:50 6.5ft 13s 11s 7 9 mph 1021.3mb 60f 60f
Ter 01/27 11:50 6ft 13s 11s 7 9 mph 1021.5mb 60f 60f
10:50 5.5ft 15s 11s 11 13 mph 1021mb 61f 60f
9:50 6ft 14s 11s 9 11 mph 1021.1mb 61f 60f
8:50 6ft 13s 11s 4 7 mph 1021.8mb 61f 60f
7:50 6ft 14s 11s 7
mph
1021.4mb 62f 60f
6:50 6.5ft 15s 11s 2 4 mph 1021.7mb 62f 60f
5:50 5.5ft 13s 11s 2 4 mph 1021.5mb 62f 61f
4:50 6ft 13s 11s  -  2 mph 1021.1mb 62f 63f
3:50 5.5ft 13s 10s  -  2 mph 1021.4mb 62f 62f
2:50 5.5ft 14s 10s 2
mph
1021.3mb 62f 61f
1:50 6ft 14s 11s 2 4 mph 1021.4mb 62f 61f
12:50 5.5ft 13s 10s 4
mph
1021.7mb 62f 60f
11:50 7.5ft 14s 11s 2 4 mph 1022.3mb 61f 61f
10:50 6ft 14s 10s 4
mph
1022.3mb 61f 61f
9:50 7ft 15s 10s 2 4 mph 1021.9mb 60f 61f
8:50 7ft 14s 10s 4 7 mph 1021.7mb 60f 61f
7:50 7ft 15s 9s 9 11 mph 1021.3mb 60f 61f
6:50 8ft 14s 10s 7 9 mph 1020.8mb 60f 60f
5:50 8ft 14s 9s 7 9 mph 1019.9mb 60f 60f
4:50 8ft 15s 9s 2 4 mph 1019.1mb 61f 61f
3:50 7.5ft 14s 9s 2 4 mph 1018.9mb 61f 61f
2:50 6.5ft 14s 8s 7 9 mph 1018.8mb 61f 61f
1:50 8ft 14s 10s 4 7 mph 1018.4mb 60f 61f
12:50 6.5ft 15s 9s 7 9 mph 1018mb 60f 60f
Seg 01/26 11:50 7ft 14s 10s 13 16 mph 1018.2mb 60f 60f
10:50 7ft 15s 11s 13 18 mph 1017.8mb 61f 60f
9:50 8ft 14s 12s 11 13 mph 1017.2mb 61f 61f
8:50 6.5ft 14s 12s 4 7 mph 1017mb 61f 62f
7:50 6.5ft 15s 12s 4 9 mph 1016.7mb 61f 62f
6:50 8ft 15s 12s 9 16 mph 1016mb 62f 64f
5:50 6ft 15s 11s 4 7 mph 1015.4mb 62f 63f
4:50 6ft 16s 11s 2 4 mph 1015.1mb 62f 64f
3:50 7ft 15s 12s  -  2 mph 1014.4mb 62f 62f
2:50 6ft 16s 11s 4 7 mph 1014.2mb 62f 62f
1:50 6ft 16s 11s  -  2 mph 1013.6mb 62f 63f
12:50 6.5ft 15s 12s 4 7 mph 1013.6mb 62f 62f
11:50 6.5ft 14s 11s 2 4 mph 1014.7mb 62f 63f
10:50 6ft 14s 11s 2
mph
1015mb 61f 62f
9:50 6.5ft 13s 11s 2
mph
1015.5mb 61f 62f
8:50 6.5ft 15s 11s 2 4 mph 1015.2mb 61f 62f
7:50 7ft 13s 11s 2 4 mph 1015mb 61f 62f
6:50 6ft 14s 11s 4
mph
1014.5mb 61f 62f
5:50 6.5ft 14s 12s 2 4 mph 1014.1mb 61f 63f
4:50 6ft 14s 11s 2
mph
1014mb 61f 62f
3:50 6.5ft 14s 11s 4 7 mph 1013.6mb 61f 62f
2:50 6.5ft 14s 11s 4 7 mph 1015.1mb 61f 62f
1:50 6.5ft 15s 11s 4 7 mph 1015.4mb 61f 62f
12:50 7.5ft 15s 12s  -  2 mph 1015.4mb 61f 62f
Dom 01/25 11:50 7ft 12s 11s 2 4 mph 1015.8mb 61f 64f
10:50 6.5ft 15s 11s  -  2 mph 1016.4mb 61f 63f
9:50 7ft 15s 11s 2 4 mph 1016.4mb 62f 62f
8:50 7ft 14s 11s 4 7 mph 1016.2mb 61f 63f
7:50 6.5ft 14s 10s 2 4 mph 1015.7mb 62f 63f
6:50 8.5ft 15s 12s 9 11 mph 1014.8mb 62f 63f
5:50 7.5ft 15s 11s 2 4 mph 1014.8mb 62f 65f
4:50 7ft 14s 11s 4 7 mph 1014.6mb 62f 64f
3:50 7ft 15s 11s 4
mph
1013.8mb 62f 64f
2:50 8ft 15s 11s 4 7 mph 1013.8mb 62f 64f
1:50 8ft 16s 11s 4 7 mph 1014mb 62f 65f
12:50 7ft 15s 10s 7 9 mph 1014.8mb 62f 64f
11:50 7.5ft 16s 10s 2 4 mph 1015.9mb 61f 64f
10:50 8.5ft 15s 10s 9 11 mph 1016.5mb 61f 65f
9:50 8.5ft 15s 11s 11 13 mph 1016.7mb 61f 66f
8:50 8.5ft 15s 11s 9 11 mph 1016.4mb 61f 65f
7:50 9ft 16s 11s 9 11 mph 1015.9mb 61f 65f
6:50 9.5ft 15s 11s 11 13 mph 1015.9mb 61f 64f
5:50 8ft 15s 11s 11 16 mph 1015.7mb 60f 65f
4:50 9ft 15s 12s 7 9 mph 1015.7mb 60f 64f
3:50 8ft 13s 11s 4 7 mph 1016.1mb 60f 65f
2:50 8ft 15s 11s 7 9 mph 1016.5mb 60f 64f
1:50 9ft 16s 11s 9 11 mph 1016.4mb 60f 63f
12:50 9ft 16s 11s 7 9 mph 1016.5mb 60f 64f
Sáb 01/24 11:50 8ft 16s 10s 11 13 mph 1017mb 61f 64f
10:50 8.5ft 16s 10s 13 16 mph 1017.4mb 61f 63f
9:50 7ft 15s 9s 11 13 mph 1017.5mb 61f 63f